Temp
64 64 64 64 64 63 64 64 64 64 64 64 64 64 64 64 64 70 76 87 84 82 83 89 88 89 92 85 82 77 60 61 70 76 78 88 84 88 88 83 85 83 77 80 81
63 63 64 63 63 63 64 64 64 64 64 64 64 64 64 64 69 76 88 84 83 83 88 85 80 79 71 71 72 67 61 71 79 85 82 87 84 81 81 79 74 74 80 83 81
63 63 63 63 63 63 62 63 63 63 63 63 64 64 64 64 70 84 86 83 83 89 94 87 85 79 71 66 71 69 65 84 88 89 91 87 82 84 75 70 74 71 75 78 79
63 62 62 62 62 62 63 62 63 63 63 63 64 64 64 66 72 87 83 83 84 94 91 88 79 72 68 65 70 64 79 85 90 92 89 85 85 78 77 80 79 78 77 78 77
62 62 62 62 62 62 62 62 62 62 62 63 64 64 65 69 82 85 83 82 86 92 86 84 72 71 68 71 74 69 75 91 92 92 90 91 84 84 80 82 81 80 79 77 77
61 61 61 61 61 61 62 62 61 62 62 63 64 64 64 71 94 88 89 85 88 89 83 83 74 76 74 72 71 80 80 88 91 90 91 86 84 83 81 82 79 78 76 78 78
61 61 61 61 61 61 61 61 61 61 62 63 65 71 74 80 98 94 92 88 93 91 86 85 83 78 72 71 78 77 71 87 87 89 86 87 77 77 82 83 77 77 77 78 78
60 61 60 60 60 61 60 60 60 61 62 63 65 68 70 98 97 95 95 91 95 97 96 94 86 80 80 84 82 79 75 72 85 85 85 82 66 80 82 81 75 77 78 79 81
60 60 60 60 60 59 59 59 61 63 64 66 60 62 75 91 92 98 97 93 95 96 96 104 95 84 84 69 66 74 70 74 79 88 79 77 70 81 84 80 76 76 76 79 79
59 59 59 59 59 58 59 59 66 62 66 77 81 68 81 87 93 99 99 99 95 94 92 89 78 64 69 64 62 69 73 77 75 83 79 73 74 80 82 79 77 76 76 76 79
59 59 59 58 58 58 61 67 68 66 74 75 78 82 91 93 98 97 100 96 93 88 78 86 74 63 71 76 80 80 80 75 80 88 67 70 75 77 80 80 77 75 75 77 79
59 58 58 58 57 57 56 71 84 86 77 84 88 91 94 95 89 93 98 86 84 77 83 78 73 83 84 83 80 80 78 75 81 87 79 76 74 79 79 78 78 77 76 78 79
59 58 58 57 57 55 69 80 93 93 76 86 90 91 89 92 88 87 92 88 82 78 80 73 81 90 85 81 80 74 74 75 76 83 82 78 69 72 78 81 81 81 81 81 79
59 58 57 56 56 77 79 85 88 86 67 79 84 91 92 93 84 99 98 89 84 78 81 78 88 88 84 80 77 62 85 85 82 71 64 75 53 64 72 75 79 80 80 81 80
58 58 56 56 53 74 92 101 95 88 54 85 86 100 94 85 84 90 99 89 80 82 77 76 82 82 80 82 83 77 87 82 82 73 65 67 55 65 70 70 75 80 82 84 84
58 57 56 57 57 70 87 92 93 66 60 81 89 84 83 86 88 91 90 89 91 82 82 81 91 85 79 87 86 89 82 79 75 68 57 60 57 59 65 72 75 82 85 86 85
56 55 53 70 81 93 94 83 65 59 83 80 80 84 82 80 83 85 80 75 71 64 68 80 83 88 87 77 84 80 65 56 56 59 55 65 63 63 71 74 78 82 82 86 87
55 53 57 69 84 90 88 73 59 76 79 88 86 85 80 83 79 82 78 73 81 78 75 68 67 81 89 81 73 75 69 60 56 53 59 63 58 59 72 74 76 77 76 72 88
53 71 75 79 72 81 75 63 67 76 85 86 85 78 77 85 82 80 77 78 83 84 72 67 71 88 90 87 79 76 67 74 65 64 61 62 66 69 70 69 70 71 70 74 74
59 75 86 97 89 85 71 64 77 88 88 88 77 81 73 79 78 77 76 84 85 90 82 75 68 84 88 88 86 75 79 65 63 56 53 59 54 54 61 61 64 65 67 70 72
65 76 95 103 97 78 67 73 84 93 94 86 83 78 78 76 78 79 79 87 90 85 84 73 70 73 80 77 74 74 69 67 67 63 54 52 53 64 62 62 60 62 68 68 69
72 72 100 103 76 76 75 81 77 90 91 89 86 86 80 83 72 80 79 82 93 88 77 76 71 64 73 84 88 75 74 68 59 60 60 58 52 68 66 68 68 64 66 69 74
65 77 99 100 72 75 82 86 91 90 86 86 85 87 86 82 77 83 85 91 93 86 73 78 68 60 68 74 79 72 76 68 70 66 59 55 53 66 66 67 69 73 72 75 82
67 71 83 88 86 82 79 81 84 95 89 92 85 87 83 79 82 78 81 86 90 86 79 80 71 66 58 64 73 73 78 77 68 59 63 61 55 61 67 68 73 72 73 73 79
73 75 76 71 73 79 82 82 83 82 83 88 83 84 81 72 76 76 84 86 86 79 81 78 65 65 74 80 83 78 79 79 68 66 59 63 62 64 69 72 72 73 75 75 75
65 65 70 68 79 79 77 78 82 86 84 82 79 84 84 72 73 72 77 75 74 78 75 78 66 63 68 79 79 75 79 76 77 75 70 70 66 73 73 70 72 76 74 72 70
71 71 67 65 75 76 75 76 81 82 84 87 84 81 81 82 84 83 84 84 84 78 76 74 69 63 60 73 75 66 75 76 76 77 75 67 68 73 69 71 75 71 73 71 79
MSLP
1012.85 1012.46 1012.06 1011.80 1011.56 1011.31 1011.13 1011.05 1010.94 1010.79 1010.67 1010.45 1010.20 1010.23 1009.97 1009.75 1009.02 1008.67 1007.35 1005.34 1005.61 1005.78 1006.00 1006.02 1006.55 1006.40 1005.78 1006.63 1008.26 1008.43 1007.45 1006.60 1003.96 1002.76 1002.50 1002.61 1002.70 1003.90 1004.48 1005.48 1006.01 1007.08 1008.08 1009.09 1009.98
1012.80 1012.36 1011.97 1011.69 1011.46 1011.15 1010.96 1010.92 1010.76 1010.61 1010.53 1010.40 1010.19 1010.23 1009.93 1009.70 1008.95 1007.26 1004.91 1004.71 1005.01 1005.70 1005.90 1006.23 1007.20 1007.69 1009.01 1008.14 1009.11 1009.34 1007.68 1005.18 1003.14 1001.84 1001.77 1002.08 1002.86 1003.81 1004.97 1006.12 1006.94 1007.55 1008.31 1009.36 1010.36
1012.70 1012.29 1011.93 1011.60 1011.30 1011.08 1010.92 1010.77 1010.64 1010.52 1010.40 1010.32 1010.22 1010.14 1009.82 1009.66 1008.59 1005.04 1003.60 1004.84 1005.28 1005.10 1005.59 1006.72 1007.31 1008.03 1010.12 1009.73 1008.04 1008.97 1006.96 1003.24 1001.95 1001.49 1001.39 1001.96 1002.88 1003.55 1004.69 1005.94 1006.76 1007.89 1009.12 1009.93 1010.44
1012.65 1012.25 1011.81 1011.51 1011.19 1010.93 1010.77 1010.66 1010.59 1010.49 1010.27 1010.24 1010.19 1010.03 1009.69 1009.29 1007.05 1004.39 1004.34 1004.80 1005.27 1004.72 1005.59 1006.11 1007.76 1008.20 1009.53 1009.62 1008.88 1008.21 1004.56 1003.34 1001.60 1000.75 1000.87 1001.96 1002.98 1004.01 1004.51 1004.81 1006.81 1008.10 1009.20 1010.08 1010.78
1012.60 1012.17 1011.79 1011.35 1011.09 1010.79 1010.67 1010.52 1010.44 1010.42 1010.20 1010.17 1010.14 1009.90 1009.48 1008.31 1005.23 1003.96 1004.49 1004.80 1005.41 1005.46 1005.47 1006.89 1007.68 1007.66 1008.31 1008.40 1007.91 1007.12 1004.14 1002.20 1001.32 1000.74 1001.03 1001.75 1002.75 1003.44 1004.72 1005.80 1007.26 1008.73 1009.76 1010.43 1011.21
1012.53 1012.09 1011.72 1011.27 1010.91 1010.71 1010.49 1010.33 1010.24 1010.22 1010.07 1010.07 1010.04 1009.90 1009.15 1006.33 1003.36 1003.58 1004.16 1004.69 1004.94 1005.13 1005.37 1005.61 1007.06 1007.28 1007.79 1007.89 1007.62 1005.52 1004.28 1001.97 1001.12 1000.60 1000.88 1001.65 1002.92 1003.58 1005.25 1006.43 1007.83 1008.90 1009.82 1010.49 1011.19
1012.48 1011.98 1011.59 1011.18 1010.80 1010.51 1010.32 1010.18 1010.05 1010.00 1009.89 1009.90 1009.85 1009.42 1007.70 1004.42 1002.64 1003.08 1003.87 1004.07 1004.10 1004.17 1004.44 1005.56 1006.07 1007.61 1006.80 1006.53 1006.12 1005.98 1004.09 1001.30 1000.81 1000.80 1001.47 1001.95 1003.54 1004.38 1005.57 1006.38 1007.82 1008.93 1009.66 1010.31 1010.94
1012.42 1011.89 1011.49 1011.13 1010.74 1010.37 1010.15 1009.93 1009.73 1009.73 1009.65 1009.63 1009.64 1008.92 1005.90 1002.01 1002.26 1002.83 1003.15 1003.61 1003.41 1003.25 1003.16 1003.83 1005.03 1004.29 1005.01 1003.75 1003.28 1003.58 1003.20 1001.36 1000.71 1000.86 1002.08 1002.33 1004.32 1004.69 1005.72 1006.54 1007.97 1008.85 1009.59 1009.92 1010.40
1012.32 1011.78 1011.34 1010.99 1010.59 1010.23 1009.84 1009.57 1009.28 1009.32 1009.36 1009.32 1009.32 1008.20 1004.38 1001.65 1001.71 1001.87 1002.26 1002.39 1002.28 1002.21 1002.12 1002.34 1003.07 1003.58 1003.09 1003.84 1002.82 1001.60 1001.32 1000.90 1000.44 1000.71 1002.44 1003.37 1004.70 1005.14 1005.62 1006.53 1007.85 1008.73 1009.37 1009.74 1010.17
1012.27 1011.67 1011.16 1010.78 1010.44 1010.10 1009.55 1009.33 1008.81 1008.91 1009.03 1008.58 1007.70 1006.90 1003.38 1001.40 1001.17 1001.12 1001.40 1001.42 1001.50 1001.31 1001.43 1001.76 1004.01 1005.65 1003.63 1003.74 1002.35 1001.04 1000.37 1000.17 999.94 1001.32 1003.38 1004.98 1004.96 1005.32 1005.47 1006.13 1007.26 1008.36 1009.26 1009.61 1009.78
1012.20 1011.54 1011.00 1010.73 1010.41 1010.11 1009.26 1008.78 1008.76 1008.19 1007.03 1005.18 1004.01 1002.76 1000.73 1000.37 1000.51 1000.76 1000.85 1000.96 1001.05 1001.30 1001.40 1000.92 1003.35 1004.57 1003.03 1001.85 1000.78 999.94 999.68 999.43 999.28 1000.21 1002.97 1004.67 1004.71 1005.20 1005.19 1005.74 1006.91 1007.87 1008.53 1009.15 1009.31
1012.14 1011.49 1010.95 1010.62 1010.42 1010.11 1010.00 1008.14 1004.72 1003.15 1003.58 1002.65 1002.16 1001.50 1000.31 999.78 1000.37 1000.43 1000.56 1001.25 1001.25 1001.34 1000.82 1000.91 1001.36 1001.04 1000.47 999.96 999.40 998.63 998.83 998.78 998.96 999.49 1001.50 1003.79 1004.68 1004.94 1004.98 1005.46 1006.08 1007.01 1007.79 1008.36 1008.73
1012.02 1011.39 1010.88 1010.45 1010.19 1009.97 1008.21 1005.40 1002.55 1002.31 1002.61 1001.20 1000.54 1000.13 999.37 999.50 999.76 999.92 1000.47 1000.90 1001.34 1001.41 1001.05 1000.80 1000.15 999.30 999.33 998.74 998.61 998.14 998.10 998.36 998.81 999.55 1001.10 1002.85 1004.67 1004.60 1004.92 1005.37 1006.06 1006.54 1007.17 1007.80 1008.32
1011.77 1011.17 1010.77 1010.32 1010.34 1007.68 1005.97 1002.65 1002.49 1003.44 1002.57 1000.00 999.47 998.76 998.92 999.18 999.25 998.89 999.51 1000.47 1000.74 1000.95 1000.56 1000.05 998.69 998.55 998.38 998.01 997.80 997.70 997.54 997.77 998.63 999.99 1001.79 1001.82 1005.19 1005.70 1005.49 1005.53 1005.73 1006.10 1006.40 1007.20 1008.02
1011.39 1010.87 1010.60 1010.53 1009.85 1006.98 1002.75 1001.60 1001.24 1001.85 1001.75 999.24 998.33 997.53 998.19 999.00 998.25 998.23 998.78 999.62 1000.20 1000.40 1000.29 999.40 998.61 997.88 997.63 997.28 997.06 997.32 997.27 997.95 998.71 999.80 1001.04 1004.01 1005.75 1006.30 1006.24 1005.93 1005.55 1005.71 1005.82 1006.03 1006.79
1010.68 1010.39 1010.15 1009.83 1009.23 1004.36 1002.64 1002.27 1001.73 1001.89 999.83 998.13 997.63 997.88 998.53 998.56 998.27 998.13 998.97 999.22 999.54 999.99 999.67 998.99 997.66 997.27 996.64 996.62 996.76 996.93 997.46 998.09 998.90 1000.08 1002.86 1004.57 1005.41 1006.60 1006.00 1004.61 1005.50 1005.38 1005.47 1005.53 1005.99
1009.36 1009.55 1009.75 1007.99 1004.97 1002.91 1002.19 1002.77 1002.50 1001.03 998.00 997.75 997.79 997.88 998.20 998.29 998.28 998.55 999.07 999.56 999.80 1000.01 999.45 998.54 997.48 996.61 996.34 996.53 996.58 996.95 997.95 998.99 1000.27 1001.14 1002.97 1004.08 1005.38 1005.08 1005.31 1005.79 1005.88 1006.35 1006.38 1005.49 1005.64
1008.15 1007.50 1006.43 1005.49 1003.50 1003.20 1002.46 1002.63 1002.14 999.82 998.61 997.67 997.18 997.43 997.80 997.86 998.27 998.52 998.91 999.32 999.07 999.12 999.07 998.35 997.16 996.23 995.81 996.05 996.37 996.60 997.36 998.97 1000.24 1001.05 1002.94 1003.92 1006.00 1007.82 1007.10 1006.62 1006.80 1006.63 1007.43 1006.33 1005.42
1007.40 1005.50 1005.01 1002.69 1003.32 1003.97 1003.33 1002.60 1000.71 998.91 997.62 996.81 996.54 996.74 997.15 997.15 997.60 998.19 998.09 998.16 997.75 997.55 997.86 997.50 996.66 995.71 995.24 995.41 996.02 996.50 997.10 997.64 999.04 999.86 1003.89 1006.05 1007.38 1007.65 1007.43 1007.41 1007.90 1007.32 1006.81 1005.46 1005.88
1008.00 1005.21 1002.07 1000.75 1001.85 1002.81 1002.88 1001.65 999.67 997.75 996.99 996.40 996.18 995.76 996.20 996.59 997.16 997.41 997.22 996.21 996.10 995.84 995.85 996.45 996.60 995.93 995.45 995.31 995.67 996.22 996.69 997.64 998.99 1000.84 1003.64 1006.09 1007.66 1008.16 1009.20 1009.37 1009.96 1009.55 1007.44 1006.21 1007.28
1007.44 1004.02 998.80 999.30 1000.82 1001.85 1001.75 1000.84 998.94 997.88 996.76 995.84 995.54 995.90 996.27 996.95 997.39 996.75 995.96 995.24 994.78 994.78 995.19 995.80 996.47 996.37 996.01 996.10 996.40 996.75 997.16 998.01 998.96 1000.49 1002.36 1005.29 1007.40 1008.74 1009.30 1010.30 1010.73 1011.11 1009.09 1009.16 1009.08
1007.14 1003.31 998.61 998.70 1000.42 1000.68 1000.68 999.86 998.75 996.86 996.31 995.59 995.19 995.50 996.22 997.18 997.21 996.34 995.05 994.39 994.15 994.46 995.38 995.81 996.51 996.92 996.60 996.50 997.32 997.18 997.11 997.74 999.49 1000.69 1002.25 1004.35 1007.73 1008.32 1009.04 1009.83 1010.24 1009.75 1010.22 1009.51 1008.95
1008.35 1003.50 998.63 998.33 999.67 1000.00 999.62 998.91 997.91 997.30 997.22 995.92 995.21 995.53 995.62 996.37 997.37 996.33 995.40 994.88 994.69 995.20 996.14 996.48 997.16 997.82 997.69 997.74 997.20 997.33 997.25 997.17 998.04 999.65 1001.98 1003.93 1007.02 1007.67 1008.40 1009.37 1008.44 1008.02 1008.27 1006.72 1005.10
1008.59 1004.12 1000.44 999.13 999.25 999.66 999.39 998.47 997.54 996.53 995.98 995.64 995.43 995.51 995.86 996.20 996.00 995.92 995.67 995.93 995.71 995.92 996.13 996.50 997.31 998.06 998.53 998.48 997.79 997.41 997.04 997.25 998.00 999.92 1001.47 1003.03 1005.79 1007.29 1007.95 1007.52 1007.33 1006.60 1007.06 1006.55 1006.07
1007.82 1005.56 1004.66 1002.60 1001.51 1000.88 999.86 998.60 997.77 997.18 997.22 997.01 995.71 995.89 996.34 996.81 996.63 996.56 996.15 995.33 996.34 995.98 996.26 996.73 997.65 998.02 998.13 998.18 997.75 997.39 997.00 997.14 997.80 998.57 1000.06 1002.23 1003.83 1005.40 1005.22 1004.63 1005.65 1005.81 1005.92 1006.22 1006.84
1010.01 1008.94 1006.99 1005.50 1003.13 1001.62 1000.31 999.47 998.62 997.97 997.86 997.82 997.24 997.13 996.71 997.82 998.11 997.94 997.73 997.19 996.70 996.85 996.66 996.90 997.80 998.22 998.68 998.09 997.49 997.11 996.72 996.71 996.92 997.53 998.48 999.92 1002.60 1003.49 1004.38 1004.57 1004.47 1004.68 1005.26 1006.10 1007.01
1011.88 1010.51 1009.00 1006.34 1004.57 1003.08 1002.31 1001.44 1000.08 999.38 998.70 998.77 998.94 998.38 997.97 998.22 997.96 998.03 997.78 997.30 996.78 996.97 997.16 997.24 997.99 998.79 999.12 998.33 997.53 997.12 996.37 996.13 996.34 996.81 997.67 999.02 1000.31 1002.35 1004.32 1004.27 1003.97 1004.36 1005.14 1006.01 1006.98
Wind_Speed
16 16 14 13 13 13 12 10 10 9 9 10 11 10 11 11 15 4 6 5 8 17 4 7 9 12 7 4 4 3 1 3 4 3 11 8 15 14 19 17 9 9 11 19 13
17 16 14 13 12 12 11 10 10 10 9 10 11 10 10 10 5 8 7 9 17 12 2 3 11 16 8 14 6 4 3 9 5 5 13 13 12 11 9 8 11 14 16 19 14
17 15 14 13 13 12 12 11 10 9 9 9 10 10 10 8 4 4 16 14 17 12 14 12 15 10 16 4 2 3 7 9 7 16 9 13 17 6 10 4 12 25 24 19 15
17 16 14 13 13 12 11 11 10 9 10 9 9 9 9 4 3 4 9 12 15 11 6 3 10 6 5 12 8 8 17 10 3 3 9 13 11 9 9 8 24 23 21 18 16
18 16 14 13 13 12 12 11 10 9 9 9 8 8 5 3 7 5 13 10 9 11 9 15 9 2 8 8 6 11 22 11 3 9 13 15 14 9 20 24 25 23 21 18 13
18 17 15 14 14 13 12 11 10 9 9 8 7 7 3 4 8 11 13 10 9 14 10 7 10 9 3 7 9 7 15 9 6 6 14 13 12 17 20 25 24 24 21 18 16
20 18 16 14 14 13 12 11 11 10 9 8 6 5 5 10 13 9 13 8 15 15 13 17 16 13 16 13 21 17 12 10 9 8 11 19 14 13 20 23 23 22 19 19 19
19 19 17 15 14 14 13 12 12 11 9 8 5 5 8 8 11 12 11 10 13 16 18 18 19 21 11 6 7 17 27 6 8 12 6 7 6 12 22 20 19 21 17 15 15
20 19 18 16 14 14 13 14 13 10 7 4 3 3 8 2 6 13 11 12 17 18 10 12 6 5 9 4 7 5 5 9 8 12 6 6 9 10 19 19 17 16 15 15 13
20 19 17 17 15 14 15 10 7 3 6 8 8 2 7 12 8 9 10 16 11 7 8 11 8 6 6 5 6 8 12 9 8 11 25 10 10 9 12 19 16 15 16 14 14
21 20 18 17 15 12 11 2 1 2 7 12 11 7 8 9 9 9 12 10 7 8 10 13 14 13 21 17 17 18 6 11 7 11 26 23 13 13 12 10 16 14 13 16 17
21 19 18 18 14 10 4 5 10 6 10 18 18 16 17 11 9 8 7 7 6 9 11 8 3 18 12 14 15 14 6 7 5 5 26 17 12 11 12 14 12 17 15 13 9
21 19 17 16 13 4 6 12 11 9 5 5 12 13 6 6 8 12 10 9 10 10 13 9 10 14 8 14 14 6 6 6 10 6 16 18 5 7 6 10 13 14 13 14 14
21 19 16 13 5 4 7 12 18 4 4 7 8 10 7 7 10 15 17 10 8 13 13 10 13 10 10 10 5 3 7 4 4 8 12 6 3 5 3 7 14 15 15 15 17
21 18 14 6 8 5 9 14 4 2 4 12 10 8 10 8 5 9 13 7 11 12 6 14 9 8 8 7 3 6 8 4 5 6 2 6 8 4 5 8 10 15 16 15 17
22 17 12 4 5 14 12 11 7 1 7 10 8 7 8 10 10 7 7 6 8 10 11 13 13 6 2 5 5 7 7 7 6 3 5 4 7 11 9 19 5 8 13 14 16
28 18 7 7 6 7 7 1 2 4 5 10 10 10 11 10 8 8 7 7 7 4 10 16 13 13 3 6 9 7 3 4 6 4 7 9 7 9 5 3 2 5 1 12 15
33 24 12 9 8 8 5 3 4 13 10 8 11 13 12 12 8 8 9 8 12 12 12 5 9 9 8 9 6 8 5 7 3 6 5 7 2 5 12 17 15 8 10 10 15
32 3 4 8 14 4 1 3 7 10 8 1 13 8 11 10 10 9 12 15 15 17 8 3 7 4 7 4 2 10 6 7 2 3 10 4 3 4 11 19 18 16 20 21 8
6 5 7 6 14 4 2 7 5 7 15 25 11 9 6 9 9 10 11 12 17 19 3 4 4 8 12 6 7 7 8 7 6 2 6 3 3 6 8 17 19 14 20 30 9
3 4 8 12 11 3 4 6 15 21 20 15 6 4 5 7 9 9 12 15 11 3 6 3 3 5 4 3 6 6 6 4 1 3 5 5 0 7 11 16 20 16 25 24 31
5 4 4 8 3 4 9 10 10 22 15 19 4 8 5 8 5 19 5 5 1 6 5 3 2 4 3 5 6 5 9 3 6 10 4 7 2 7 7 12 25 30 32 25 30
5 5 6 9 5 6 9 17 20 17 15 17 3 5 6 7 7 17 7 9 7 7 2 5 3 5 5 9 11 5 7 4 4 6 1 7 4 6 6 8 13 3 12 8 12
4 5 4 3 6 9 11 12 16 15 4 15 5 7 7 8 9 4 5 3 19 5 4 5 3 4 4 7 4 9 8 8 5 6 1 4 7 6 11 14 10 14 17 3 3
2 4 8 5 7 14 16 9 12 9 10 22 6 5 7 7 9 9 15 16 25 8 4 4 4 2 9 11 14 6 5 8 5 5 4 9 15 18 21 21 17 11 6 5 12
6 6 7 8 12 14 11 9 11 12 4 7 3 17 9 8 6 9 9 6 1 3 4 3 5 2 7 10 9 5 9 3 6 4 2 7 9 16 14 2 13 17 7 7 10
7 6 4 7 9 10 13 16 20 16 11 15 15 7 14 12 8 8 9 12 9 4 4 4 6 2 7 9 6 3 9 3 4 6 6 6 8 22 17 15 18 11 11 10 13
Wind_Direction
336 333 329 325 319 314 310 314 313 311 310 307 308 322 323 323 302 231 243 209 175 176 180 176 207 254 228 315 39 351 271 336 298 134 148 139 113 99 64 120 167 166 138 162 140
339 335 331 325 319 313 313 315 309 310 310 308 308 323 322 328 272 246 249 131 135 140 92 150 45 50 52 321 85 52 282 199 235 58 133 121 107 99 110 114 71 80 116 147 144
343 339 334 327 320 317 313 312 313 312 309 306 312 323 320 312 281 215 148 139 130 124 98 82 92 69 82 324 346 137 240 180 64 86 101 99 141 100 130 155 141 135 142 147 151
346 341 337 330 324 317 315 315 310 311 307 308 315 321 321 267 47 104 132 142 147 145 78 69 47 60 90 173 256 272 241 262 91 174 148 120 135 123 177 162 136 136 144 154 155
347 344 339 333 325 320 318 312 312 310 302 304 317 319 290 219 256 151 128 131 150 173 182 111 77 60 154 222 298 238 268 100 131 87 86 109 101 73 112 117 125 135 147 146 161
348 345 340 334 327 320 317 314 309 303 296 299 311 309 250 248 110 148 142 147 169 191 180 157 168 187 188 268 251 293 286 151 153 104 108 93 104 99 114 128 133 143 153 157 158
350 346 340 335 326 320 317 312 303 295 289 293 301 276 261 253 136 169 147 179 180 198 188 177 164 167 181 245 212 223 281 139 146 135 108 107 88 99 141 135 143 147 159 170 165
344 345 341 334 324 318 314 305 295 285 283 278 275 265 252 215 148 163 177 189 226 226 239 181 168 207 185 239 273 157 228 142 164 116 55 75 124 129 122 134 143 149 162 161 172
341 340 338 333 325 318 311 305 291 272 251 263 216 231 269 131 208 178 172 216 215 229 230 241 195 277 297 21 345 236 154 145 162 141 105 44 133 153 135 131 147 150 160 167 175
338 337 334 335 328 324 313 284 297 292 218 213 257 257 257 217 188 212 183 224 249 253 252 224 104 265 316 39 277 286 152 165 158 138 69 309 133 127 128 139 148 150 161 174 181
337 334 333 336 330 335 329 211 347 273 239 200 188 236 307 212 167 199 198 231 261 275 267 275 122 243 236 217 251 270 207 152 159 149 135 207 148 147 137 127 148 156 162 178 190
334 331 330 333 327 325 286 248 249 254 267 220 254 243 270 187 172 191 191 213 248 254 275 299 132 237 251 281 281 277 117 144 139 167 129 147 142 151 150 151 162 159 169 180 173
331 328 327 326 323 274 230 234 262 319 285 229 212 227 239 140 209 198 192 215 239 272 273 261 223 212 244 275 285 316 88 153 166 190 123 114 113 155 151 150 167 167 172 175 173
329 325 326 329 312 251 231 249 246 241 297 230 211 234 189 180 237 220 190 184 234 240 267 266 263 218 254 268 347 48 337 360 316 130 154 151 180 332 220 190 174 175 178 184 181
327 322 317 291 321 258 252 326 202 166 296 163 206 154 169 190 234 239 169 176 241 267 291 259 282 279 243 265 4 266 304 302 282 275 148 81 82 278 337 243 198 180 185 184 179
324 320 317 196 218 247 296 311 316 320 245 182 138 183 148 223 252 117 154 171 226 250 277 264 277 275 306 311 305 257 273 293 275 217 69 202 108 216 225 204 189 182 181 166 162
318 313 268 296 222 323 273 239 313 223 290 149 164 161 205 214 234 153 172 197 219 220 253 268 244 256 185 280 283 261 284 307 352 3 186 180 118 222 205 99 58 353 139 174 175
317 313 212 225 256 327 312 351 265 272 284 247 161 181 200 205 149 173 184 214 232 228 261 272 304 216 200 212 241 293 188 169 206 237 156 142 49 360 58 55 49 20 347 352 190
313 157 210 230 210 240 349 255 226 257 258 310 172 187 218 178 147 177 195 209 224 221 205 178 305 279 162 251 31 297 347 253 260 261 109 59 27 254 37 38 40 9 334 292 293
311 272 231 194 157 172 176 253 230 276 312 305 200 212 192 205 152 195 199 228 231 226 183 220 178 240 269 193 273 194 240 347 342 36 107 87 189 203 60 60 29 24 319 296 324
247 268 232 173 155 162 214 227 292 273 278 288 57 343 22 357 329 249 229 233 205 132 148 42 37 284 40 38 308 344 315 326 115 118 157 149 280 167 155 145 148 143 237 249 256
308 273 162 153 163 203 227 246 274 288 317 287 330 323 94 218 267 305 213 87 43 121 119 186 196 296 190 85 21 300 294 300 118 297 38 117 45 118 150 169 173 183 208 237 254
304 271 267 175 225 252 248 257 254 237 307 276 204 261 278 197 177 262 62 35 52 53 70 343 333 3 12 7 342 306 292 8 354 79 24 108 213 181 178 179 236 271 275 309 87
279 300 321 213 213 254 282 283 286 283 292 283 316 346 343 337 314 229 153 23 335 111 130 74 267 202 184 205 258 291 323 354 34 83 225 162 149 184 156 173 192 226 254 303 258
272 343 18 344 338 319 311 287 314 336 357 328 330 277 281 313 318 5 9 126 232 171 150 151 236 299 296 179 229 238 306 322 349 323 90 171 151 178 180 176 185 221 216 338 317
9 351 342 289 310 320 312 317 315 314 321 284 244 335 337 63 46 343 0 352 87 265 147 210 278 306 296 291 284 255 279 237 264 269 293 163 159 183 180 198 171 213 215 260 293
9 321 265 290 314 318 355 345 338 15 354 9 10 0 303 21 15 329 304 290 285 308 259 178 166 199 256 266 297 23 282 2 18 44 75 52 155 165 178 189 207 199 202 220 234